Weather History for Fountain Dale, PA

Change the Weather History Date:

Thursday, January 17, 2013

  Actual Average (KHGR) Record (KHGR)
Temperature  
Mean Temperature 40 °F -  
Max Temperature 44 °F 33 °F 52 °F (2012)
Min Temperature 36 °F 20 °F 2 °F (2009)
Degree Days  
Heating Degree Days 25    
Moisture  
Dew Point 27 °F    
Average Humidity 59    
Maximum Humidity 76    
Minimum Humidity 47    
Precipitation  
Precipitation 0.00 in - - ()
Sea Level Pressure  
Sea Level Pressure 30.06 in    
Wind  
Wind Speed 4 mph (WNW)    
Max Wind Speed 9 mph    
Max Gust Speed -    
Visibility 10 miles    
Events      
Averages and records for this station are not official NWS values.
T = Trace of Precipitation, MM = Missing Value Source: NWS Daily Summary

Daily Weather History Graph

Daily Weather History Graph

Search for Another Location

Airport:

Trip Planner

Search our weather history database for the weather conditions in past years. The results will help you decide how hot, cold, wet, or windy it might be!

Date:

Astronomy

Jan. 17, 2013 Rise Set
Actual Time 7:28 AM EST 5:12 PM EST
Civil Twilight 6:58 AM EST 5:41 PM EST
Nautical Twilight 6:25 AM EST 6:14 PM EST
Astronomical Twilight 5:53 AM EST 6:47 PM EST
Moon 10:35 AM EST (1/17) No Moon Set
Length of Visible Light 10h 43m
Length of Day
9h 44m
Waxing Crescent, 37% of the Moon is Illuminated
Jan 17
Waxing Crescent
Jan 18
First Quarter
Jan 26
Full
Feb 3
Last Quarter
Feb 10
New

Hourly Weather History & Observations

Time (EST) Temp. Windchill Dew Point Humidity Pressure Visibility Wind Dir Wind Speed Gust Speed Precip Events Conditions
12:53 AM 43.0 °F 38.8 °F 30.9 °F 62% 29.99 in 10.0 mi Variable 6.9 mph - N/A   Partly Cloudy
1:53 AM 44.1 °F 41.5 °F 28.9 °F 55% 29.99 in 10.0 mi Variable 4.6 mph - N/A   Clear
2:53 AM 44.1 °F 40.1 °F 28.0 °F 53% 29.99 in 10.0 mi West 6.9 mph - N/A   Clear
3:53 AM 43.0 °F 38.2 °F 26.1 °F 51% 29.98 in 10.0 mi West 8.1 mph - N/A   Clear
5:53 AM 42.1 °F 37.7 °F 23.0 °F 47% 30.03 in 10.0 mi West 6.9 mph - N/A   Clear
6:53 AM 41.0 °F 35.2 °F 21.9 °F 47% 30.05 in 10.0 mi NW 9.2 mph - N/A   Clear
7:53 AM 39.9 °F 37.8 °F 24.1 °F 53% 30.07 in 10.0 mi Variable 3.5 mph - N/A   Clear
8:53 AM 39.0 °F - 26.1 °F 60% 30.09 in 10.0 mi Calm Calm - N/A   Clear
10:53 AM 39.9 °F 37.8 °F 28.0 °F 63% 30.12 in 10.0 mi West 3.5 mph - N/A   Clear
12:53 PM 39.9 °F 37.8 °F 26.1 °F 58% 30.09 in 10.0 mi Variable 3.5 mph - N/A   Clear
1:53 PM 39.9 °F - 25.0 °F 55% 30.07 in 10.0 mi Calm Calm - N/A   Scattered Clouds
2:53 PM 39.9 °F 36.7 °F 25.0 °F 55% 30.06 in 10.0 mi North 4.6 mph - N/A   Clear
3:53 PM 39.9 °F - 27.0 °F 60% 30.08 in 10.0 mi Calm Calm - N/A   Clear
4:53 PM 39.0 °F - 27.0 °F 62% 30.11 in 10.0 mi Calm Calm - N/A   Mostly Cloudy
5:53 PM 37.9 °F - 28.9 °F 70% 30.11 in 10.0 mi Calm Calm - N/A   Overcast
6:53 PM 37.9 °F - 28.0 °F 68% 30.10 in 9.0 mi Calm Calm - N/A   Mostly Cloudy
7:53 PM 36.0 °F - 28.9 °F 76% 30.10 in 7.0 mi Calm Calm - N/A   Clear
8:53 PM 37.9 °F - 27.0 °F 65% 30.09 in 8.0 mi Calm Calm - N/A   Clear
9:53 PM 37.0 °F - 27.0 °F 67% 30.08 in 8.0 mi Calm Calm - N/A   Clear
10:53 PM 37.9 °F 34.4 °F 25.0 °F 60% 30.09 in 9.0 mi Variable 4.6 mph - N/A   Clear
11:53 PM 37.0 °F 34.5 °F 25.0 °F 62% 30.05 in 8.0 mi Variable 3.5 mph - N/A   Clear